Date,TemperatureHighF,TemperatureAvgF,TemperatureLowF,DewpointHighF,DewpointAvgF,DewpointLowF,HumidityHigh,HumidityAvg,HumidityLow,PressureMaxIn,PressureMinIn,WindSpeedMaxMPH,WindSpeedAvgMPH,GustSpeedMaxMPH,PrecipitationSumIn
2013-2-1,68.4,52.9,36.7,18.8,12.3,5.8,29,20,15,25.63,25.45,20,7,20,0.00
2013-2-2,66.2,52.5,41.2,17.2,11.8,4.5,30,20,15,25.72,25.57,23,6,23,9.71
2013-2-3,65.5,48.2,36.7,24.6,19.0,12.1,43,32,18,25.72,25.42,23,6,23,0.00
2013-2-4,69.3,60.0,49.5,28.7,22.9,15.9,30,24,19,25.42,25.31,33,12,33,0.00
2013-2-5,70.0,56.2,43.3,29.3,23.0,14.2,46,28,20,25.51,25.34,28,7,28,0.00
2013-2-6,73.2,58.5,45.9,31.7,25.1,20.2,38,28,19,25.45,25.28,21,6,21,0.00
2013-2-7,72.1,55.4,44.6,27.0,19.9,14.2,38,25,16,25.60,25.39,24,6,24,0.00
2013-2-8,64.2,50.5,35.1,29.0,23.4,12.9,58,36,24,25.63,25.37,57,8,57,0.24
2013-2-9,73.6,59.3,47.7,31.5,24.3,8.5,50,29,13,25.42,25.13,42,18,42,66.10
2013-2-10,64.8,49.3,37.2,19.6,12.8,5.6,30,23,17,25.45,25.28,26,8,26,0.00
2013-2-11,66.6,52.9,37.9,29.2,19.3,9.4,48,27,18,25.45,25.25,33,7,33,0.46
2013-2-12,54.3,44.3,32.9,27.3,11.9,1.0,49,27,18,25.48,25.28,44,12,44,0.09
2013-2-13,59.7,43.2,26.6,17.9,9.9,-0.7,57,28,16,25.51,25.34,25,6,25,0.00
2013-2-14,66.2,50.2,37.0,17.1,8.9,1.0,22,19,15,25.48,25.34,26,9,26,0.00
2013-2-15,46.4,36.8,30.2,25.6,19.2,2.3,71,52,19,25.75,25.48,27,9,27,0.00
2013-2-16,64.6,46.2,27.5,21.9,14.7,5.1,73,33,15,25.78,25.57,194,6,194,0.00
2013-2-17,69.8,55.2,41.5,19.8,12.0,4.5,23,18,14,25.57,25.28,29,9,29,0.00
2013-2-18,67.3,56.9,44.4,17.9,12.2,2.5,21,17,15,25.48,25.28,39,13,39,0.00
2013-2-19,60.1,50.2,42.8,27.5,12.8,2.9,53,23,16,25.51,25.31,27,7,27,0.00
2013-2-20,75.7,58.1,39.7,30.9,23.4,11.8,63,32,13,25.37,24.92,40,14,40,58.85
2013-2-21,57.9,45.2,35.1,20.2,13.1,0.3,52,29,17,25.34,25.07,50,18,50,0.00
2013-2-22,69.3,47.6,32.4,19.5,8.4,-1.0,25,20,15,25.42,25.31,33,7,33,0.00
2013-2-23,66.7,51.1,34.3,19.9,11.5,1.5,32,21,15,25.48,25.25,28,9,28,0.00
2013-2-24,72.0,59.5,40.3,20.2,13.8,0.2,20,17,14,25.28,24.98,34,13,34,0.00
2013-2-25,52.9,40.6,30.0,14.9,6.6,-2.1,37,25,18,25.39,25.19,44,18,44,0.00
2013-2-26,66.2,49.5,31.6,17.1,7.9,-2.0,23,18,15,25.37,25.19,33,11,33,0.00
2013-2-27,55.6,41.3,31.1,14.6,5.6,-5.3,31,23,16,25.63,25.28,32,10,32,0.00
2013-2-28,62.4,42.6,25.9,17.7,8.2,1.5,36,25,16,25.66,25.66,13,4,14,146.33